Port Angeles, WA
on Saturday, February 23, 2013

Saturday
Previous Day Next Day
Daily Summary
 ActualAverageRecord
Temperature
Mean Temperature °F °F  
Max Temperature 46°F 49°F 60°F (1976)
Min Temperature 39°F 35°F 25°F (2005)
Degree Days
Heating Degree Days 22    
Moisture
Dew Point 33°F   
Average Humidity 69    
Maximum Humidity 83    
Minimum Humidity 54    
Precipitation
Precipitation 0.02 in in in ()
Wind
Wind Speed 14 mph   
Max Wind Speed 22 mph   
Max Gust Speed 36 mph   
Visibility 10 miles   
Events Rain   
Averages and records for this station are not official NWS values.
Key: T is trace of precipitation, MM is missing value
Source: NWS Daily Summary
Seasonal Weather Averages
Time(PST)TemperatureDew PointHumidity Pressure Visibility Wind DirectionWind SpeedGust SpeedPrecipitationEvents Conditions
12:53 AM 39.0°F 30.9°F 73% 29.88 in 10.0 miles West 12.7 mph - N/A   Scattered Clouds
1:53 AM 41.0°F 30.9°F 67% 29.91 in 10.0 miles WSW 10.4 mph - N/A   Overcast
2:53 AM 39.9°F 33.1°F 77% 29.93 in 10.0 miles WSW 16.1 mph 23.0 mph 0.00 in   Scattered Clouds
3:26 AM 41.0°F 34.0°F 76% 29.95 in 10.0 miles West 13.8 mph 21.9 mph 0.00 in Rain Light Rain
3:45 AM 39.0°F 34.0°F 82% 29.94 in 10.0 miles WSW 15.0 mph - 0.00 in   Mostly Cloudy
3:53 AM 39.2°F 33.8°F 81% 29.95 in 10.0 miles West 12.7 mph - N/A   Overcast
4:53 AM 41.0°F 34.0°F 76% 29.98 in 10.0 miles West 17.3 mph 27.6 mph 0.00 in   Mostly Cloudy
5:53 AM 42.1°F 33.1°F 70% 30.01 in 10.0 miles West 16.1 mph 28.8 mph N/A   Clear
6:10 AM 41.0°F 34.0°F 76% 30.02 in 6.0 miles West 19.6 mph 35.7 mph 0.02 in Rain Light Rain
6:41 AM 39.9°F 35.1°F 83% 30.04 in 10.0 miles West 21.9 mph 31.1 mph 0.02 in Rain Light Rain
6:53 AM 39.9°F 35.1°F 83% 30.06 in 10.0 miles West 16.1 mph 26.5 mph 0.02 in Rain Light Rain
7:53 AM 41.0°F 35.1°F 79% 30.09 in 10.0 miles WSW 12.7 mph - 0.00 in   Scattered Clouds
8:53 AM 43.0°F 34.0°F 71% 30.12 in 10.0 miles West 12.7 mph - N/A   Overcast
9:53 AM 46.0°F 34.0°F 63% 30.15 in 10.0 miles West 17.3 mph 21.9 mph N/A   Mostly Cloudy
10:53 AM 46.9°F 34.0°F 61% 30.19 in 10.0 miles West 18.4 mph 21.9 mph N/A   Overcast
11:53 AM 46.0°F 32.0°F 58% 30.21 in 10.0 miles West 13.8 mph - N/A   Partly Cloudy
12:53 PM 46.0°F 33.1°F 61% 30.22 in 10.0 miles West 13.8 mph 23.0 mph N/A   Scattered Clouds
1:53 PM 46.9°F 32.0°F 56% 30.23 in 10.0 miles West 18.4 mph 23.0 mph 0.00 in   Partly Cloudy
2:53 PM 45.0°F 32.0°F 60% 30.26 in 10.0 miles West 18.4 mph 28.8 mph 0.00 in   Mostly Cloudy
3:53 PM 46.9°F 30.9°F 54% 30.26 in 10.0 miles WNW 15.0 mph 27.6 mph N/A   Scattered Clouds
4:53 PM 45.0°F 30.0°F 56% 30.27 in 10.0 miles West 13.8 mph 20.7 mph N/A   Scattered Clouds
5:53 PM 43.0°F 30.9°F 62% 30.30 in 10.0 miles West 11.5 mph - N/A   Partly Cloudy
6:53 PM 41.0°F 30.9°F 67% 30.31 in 10.0 miles West 4.6 mph - N/A   Partly Cloudy
7:53 PM 41.0°F 32.0°F 70% 30.32 in 10.0 miles West 6.9 mph - N/A   Partly Cloudy
8:53 PM 42.1°F 32.0°F 67% 30.33 in 10.0 miles WSW 10.4 mph - N/A   Mostly Cloudy
9:53 PM 42.1°F 30.9°F 65% 30.34 in 10.0 miles WSW 9.2 mph - N/A   Overcast
10:53 PM 41.0°F 32.0°F 70% 30.35 in 10.0 miles West 9.2 mph - N/A   Overcast
11:53 PM 42.1°F 30.9°F 65% 30.34 in 10.0 miles West 10.4 mph - N/A   Overcast
Moon Phase
Feb. 23 Feb. 25 Mar. 04 Mar. 11 Mar. 19
Sunrise:07:05 AM (PST) Moon Rise:04:01 PM (PST)
Sunset:05:49 PM (PST) Moon Set:05:37 AM (PST)

Copyright © 2014 The Weather Underground, Inc.